Time,TemperatureF,DewpointF,PressureIn,WindDirection,WindDirectionDegrees,WindSpeedMPH,WindSpeedGustMPH,Humidity,HourlyPrecipIn,Conditions,Clouds,dailyrainin,SoftwareType,DateUTC
2016-12-08 00:04:00,59.5,38.2,30.11,NE,45,5.4,8.1,45,0.00,CLR,,0.00,WeatherDisplay:10.37,2016-12-08 08:04:00,
2016-12-08 00:09:00,59.5,38.2,30.11,NNE,22,4.7,12.1,45,0.00,CLR,,0.00,WeatherDisplay:10.37,2016-12-08 08:09:00,
2016-12-08 00:14:00,59.5,38.2,30.11,NNE,22,4.9,8.1,45,0.00,CLR,,0.00,WeatherDisplay:10.37,2016-12-08 08:14:00,
2016-12-08 00:19:00,59.5,38.2,30.11,NNE,22,3.6,4.9,45,0.00,CLR,,0.00,WeatherDisplay:10.37,2016-12-08 08:19:00,
2016-12-08 00:24:00,59.5,38.2,30.11,NE,45,5.4,8.1,45,0.00,CLR,,0.00,WeatherDisplay:10.37,2016-12-08 08:24:00,
2016-12-08 00:29:00,59.5,38.2,30.11,NE,45,5.9,10.4,45,0.00,CLR,,0.00,WeatherDisplay:10.37,2016-12-08 08:29:00,
2016-12-08 00:34:00,59.5,38.2,30.11,ENE,68,4.5,12.7,45,0.00,CLR,,0.00,WeatherDisplay:10.37,2016-12-08 08:34:00,
2016-12-08 00:39:00,59.5,38.2,30.08,NE,45,7.1,8.1,45,0.00,CLR,,0.00,WeatherDisplay:10.37,2016-12-08 08:39:00,
2016-12-08 00:44:00,59.5,38.2,30.08,NE,45,6.4,11.5,45,0.00,CLR,,0.00,WeatherDisplay:10.37,2016-12-08 08:44:00,
2016-12-08 00:49:00,59.5,38.2,30.08,NE,45,6.7,10.4,45,0.00,CLR,,0.00,WeatherDisplay:10.37,2016-12-08 08:49:00,
2016-12-08 00:54:00,59.5,38.2,30.08,ENE,68,4.7,6.9,45,0.00,CLR,,0.00,WeatherDisplay:10.37,2016-12-08 08:54:00,
2016-12-08 00:59:00,59.5,38.2,30.08,NNE,22,6.4,7.4,45,0.00,CLR,,0.00,WeatherDisplay:10.37,2016-12-08 08:59:00,
2016-12-08 01:04:00,59.5,38.2,30.08,NNE,22,6.0,9.2,45,0.00,CLR,,0.00,WeatherDisplay:10.37,2016-12-08 09:04:00,
2016-12-08 01:09:00,59.5,38.2,30.05,NE,45,4.5,8.1,45,0.00,CLR,,0.00,WeatherDisplay:10.37,2016-12-08 09:09:00,
2016-12-08 01:14:00,59.5,38.2,30.05,NNE,22,5.4,6.9,45,0.00,CLR,,0.00,WeatherDisplay:10.37,2016-12-08 09:14:00,
2016-12-08 01:19:00,59.5,38.2,30.05,NNE,22,4.0,6.4,45,0.00,CLR,,0.00,WeatherDisplay:10.37,2016-12-08 09:19:00,
2016-12-08 01:24:00,59.5,38.2,30.08,NNE,22,3.8,6.9,45,0.00,CLR,,0.00,WeatherDisplay:10.37,2016-12-08 09:24:00,
2016-12-08 01:29:00,59.5,38.2,30.08,ENE,68,3.8,6.9,45,0.00,CLR,,0.00,WeatherDisplay:10.37,2016-12-08 09:29:00,
2016-12-08 01:34:00,59.5,38.2,30.08,NNW,338,5.4,5.8,45,0.00,CLR,,0.00,WeatherDisplay:10.37,2016-12-08 09:34:00,
2016-12-08 01:39:00,59.5,38.2,30.08,NNE,22,5.4,12.7,45,0.00,CLR,,0.00,WeatherDisplay:10.37,2016-12-08 09:39:00,
2016-12-08 01:44:00,59.5,38.2,30.08,NE,45,5.9,12.7,45,0.00,CLR,,0.00,WeatherDisplay:10.37,2016-12-08 09:44:00,
2016-12-08 01:49:00,59.5,38.2,30.08,NE,45,4.9,9.4,45,0.00,CLR,,0.00,WeatherDisplay:10.37,2016-12-08 09:49:00,
2016-12-08 01:54:00,59.5,38.2,30.08,NNE,22,6.4,11.5,45,0.00,CLR,,0.00,WeatherDisplay:10.37,2016-12-08 09:54:00,
2016-12-08 01:59:00,59.5,38.2,30.08,NE,45,4.5,8.1,45,0.00,CLR,,0.00,WeatherDisplay:10.37,2016-12-08 09:59:00,
2016-12-08 02:04:00,59.5,38.2,30.08,NE,45,5.6,8.1,45,0.00,CLR,,0.00,WeatherDisplay:10.37,2016-12-08 10:04:00,
2016-12-08 02:09:00,59.5,38.2,30.08,NNE,22,4.7,17.3,45,0.00,CLR,,0.00,WeatherDisplay:10.37,2016-12-08 10:09:00,
2016-12-08 02:14:00,59.5,38.2,30.08,ENE,68,4.5,5.8,45,0.00,CLR,,0.00,WeatherDisplay:10.37,2016-12-08 10:14:00,
2016-12-08 02:19:00,59.5,38.2,30.08,ENE,68,5.9,8.1,45,0.00,CLR,,0.00,WeatherDisplay:10.37,2016-12-08 10:19:00,
2016-12-08 02:24:00,59.5,38.2,30.08,NNE,22,6.0,10.4,45,0.00,CLR,,0.00,WeatherDisplay:10.37,2016-12-08 10:24:00,
2016-12-08 02:29:00,59.5,38.2,30.08,NNE,22,5.6,8.1,45,0.00,CLR,,0.00,WeatherDisplay:10.37,2016-12-08 10:29:00,
2016-12-08 02:34:00,59.5,38.2,30.08,ENE,68,4.3,5.8,45,0.00,CLR,,0.00,WeatherDisplay:10.37,2016-12-08 10:34:00,
2016-12-08 02:39:00,59.5,38.2,30.08,ENE,68,5.6,8.1,45,0.00,CLR,,0.00,WeatherDisplay:10.37,2016-12-08 10:39:00,
2016-12-08 02:44:00,59.5,38.2,30.08,NE,45,5.9,8.1,45,0.00,CLR,,0.00,WeatherDisplay:10.37,2016-12-08 10:44:00,
2016-12-08 02:49:00,59.5,38.2,30.08,NNE,22,4.3,5.8,45,0.00,CLR,,0.00,WeatherDisplay:10.37,2016-12-08 10:49:00,
2016-12-08 02:54:00,59.5,38.2,30.05,NNE,22,6.7,11.5,45,0.00,CLR,,0.00,WeatherDisplay:10.37,2016-12-08 10:54:00,
2016-12-08 02:59:00,59.5,38.2,30.05,ENE,68,5.9,6.9,45,0.00,CLR,,0.00,WeatherDisplay:10.37,2016-12-08 10:59:00,
2016-12-08 03:04:00,59.5,38.2,30.05,NE,45,6.0,12.7,45,0.00,CLR,,0.00,WeatherDisplay:10.37,2016-12-08 11:04:00,
2016-12-08 03:09:00,59.5,38.2,30.05,NNE,22,6.9,9.2,45,0.00,CLR,,0.00,WeatherDisplay:10.37,2016-12-08 11:09:00,
2016-12-08 03:14:00,59.5,38.2,30.05,NNE,22,4.7,5.9,45,0.00,CLR,,0.00,WeatherDisplay:10.37,2016-12-08 11:14:00,
2016-12-08 03:19:00,59.5,38.2,30.05,NE,45,5.6,9.2,45,0.00,CLR,,0.00,WeatherDisplay:10.37,2016-12-08 11:19:00,
2016-12-08 03:24:00,59.5,38.2,30.02,East,90,5.4,8.5,45,0.00,CLR,,0.00,WeatherDisplay:10.37,2016-12-08 11:24:00,
2016-12-08 03:29:00,59.5,38.2,30.02,NNE,22,6.4,8.1,45,0.00,CLR,,0.00,WeatherDisplay:10.37,2016-12-08 11:29:00,
2016-12-08 03:34:00,59.5,38.2,30.02,ENE,68,7.1,8.1,45,0.00,CLR,,0.00,WeatherDisplay:10.37,2016-12-08 11:34:00,
2016-12-08 03:40:00,59.5,38.2,30.02,NE,45,4.7,10.4,45,0.00,CLR,,0.00,WeatherDisplay:10.37,2016-12-08 11:40:00,
2016-12-08 03:45:00,59.5,38.2,30.02,ENE,68,4.9,9.2,45,0.00,CLR,,0.00,WeatherDisplay:10.37,2016-12-08 11:45:00,
2016-12-08 03:50:00,59.5,38.2,30.02,ENE,68,4.5,6.9,45,0.00,CLR,,0.00,WeatherDisplay:10.37,2016-12-08 11:50:00,
2016-12-08 03:55:00,59.5,38.2,30.02,NNE,22,5.4,9.2,45,0.00,CLR,,0.00,WeatherDisplay:10.37,2016-12-08 11:55:00,
2016-12-08 04:00:00,59.5,38.2,30.02,NNE,22,4.5,5.8,45,0.00,CLR,,0.00,WeatherDisplay:10.37,2016-12-08 12:00:00,
2016-12-08 04:05:00,59.5,38.2,30.02,ENE,68,4.9,7.1,45,0.00,CLR,,0.00,WeatherDisplay:10.37,2016-12-08 12:05:00,